Location: *
(50.8667°S, 179.2667°W)
Time: 07:02:22
(UTC+00:00)

Daily predictions for brighter satellites

Satellite Brightness Start Highest point End
(mag) Time Altitude Azimuth Time Altitude Azimuth Time Altitude Azimuth
IDEFIX/ARIANE 42P 4.0 12:15:38 36° SSE 12:15:38 36° SSE 12:18:57 10° S
Cosmos 2297 Rocket 3.6 12:22:54 10° SSW 12:28:04 33° SE 12:28:47 32° ESE
USA 234 3.9 12:33:25 10° ESE 12:39:48 53° S 12:46:12 10° WSW
CZ-2C R/B 4.4 13:04:29 31° ESE 13:04:29 31° ESE 13:08:40 10° S
Resurs 1-4 Rocket 3.6 13:13:49 30° SW 13:13:49 30° SW 13:16:36 10° SSW
USA 281 4.5 13:15:46 27° WSW 13:15:46 27° WSW 13:19:15 10° SW
Cosmos 2227 Rocket 3.4 13:09:24 10° SSW 13:14:47 40° SE 13:17:23 26° E
Thor Agena Rocket 4.3 13:18:49 51° SSE 13:18:49 51° SSE 13:22:59 10° S
CZ-2C R/B 4.1 13:18:24 24° E 13:19:23 26° ESE 13:23:20 10° S
Cosmos 2369 Rocket 3.5 13:22:53 31° SW 13:22:53 31° SW 13:27:55 10° SSE
Meteor 2-3 Rocket 4.1 13:25:41 61° SE 13:25:41 61° SE 13:30:31 10° SSE
Cosmos 1656 4.4 13:31:25 46° E 13:31:25 46° E 13:36:23 10° SE
CZ-2D R/B 3.8 13:36:26 22° SW 13:36:26 22° SW 13:38:35 10° SSW
Cosmos 1634 Rocket 4.4 13:36:52 53° SW 13:36:52 53° SW 13:42:25 10° S
ADEOS II 3.4 13:39:25 31° SW 13:39:25 31° SW 13:42:21 10° SSW
ALOS 3.2 13:43:46 44° S 13:43:46 44° S 13:47:03 10° S
Cosmos 2279 Rocket 4.1 13:45:12 68° SW 13:45:12 68° SW 13:51:14 10° S
USA 267 4.5 13:39:55 10° ESE 13:45:22 27° NE 13:45:55 26° NE
NOSS 3-3 (A) 3.9 13:41:02 10° SW 13:47:51 80° SE 13:49:14 55° ENE
NOSS 3-3 (C) 3.9 13:41:04 10° SW 13:47:53 79° SE 13:49:28 51° ENE
IRS-1D 3.8 13:50:50 60° ESE 13:50:50 60° ESE 13:55:45 10° S
IDEFIX/ARIANE 42P 4.5 13:56:23 18° SW 13:56:23 18° SW 13:58:08 10° SW
Envisat 3.9 13:57:24 32° ENE 13:59:19 46° ESE 14:04:15 10° S
CENTAUR R/B 2.8 13:58:16 64° N 13:59:26 75° NE 14:06:08 10° SE
FENGYUN 3A 4.4 14:01:39 43° SW 14:01:39 43° SW 14:05:36 10° SSW
Cosmos 2208 Rocket 4.3 14:01:12 63° SSW 14:01:12 63° SSW 14:06:00 10° SSE
Cosmos 1655 Rocket 3.9 13:54:18 10° S 14:00:44 88° E 14:01:34 70° NNE
Cosmos 1697 Rocket 3.7 14:00:10 34° NE 14:01:03 36° ENE 14:06:12 10° SE
Cosmos 1980 Rocket 4.2 14:01:31 15° NE 14:03:58 20° E 14:07:56 10° SE
BREEZE-M TANK 4.2 14:03:36 55° NNW 14:04:04 56° N 14:22:38 10° ENE
Cosmos 2180 Rocket 4.5 14:04:05 67° W 14:04:17 67° WSW 14:10:46 10° S
ISS -1.0 14:07:46 17° E 14:07:46 17° E 14:08:43 10° ESE
Lacrosse 5 2.8 14:12:16 38° ENE 14:12:16 38° ENE 14:16:37 10° ESE
Cosmos 2297 Rocket 3.0 14:06:50 10° SW 14:10:32 39° SW 14:10:32 39° SW
Cosmos 2219 3.4 14:14:21 10° SSW 14:20:12 70° ESE 14:25:58 10° NE
NOSS 3-2 (A) 4.1 14:19:02 50° NNW 14:21:37 82° NE 14:29:12 10° SE
SL-8 R/B 4.3 14:23:21 48° NE 14:23:21 48° NE 14:27:12 10° E
USA 234 3.4 14:15:52 10° ENE 14:22:27 75° SSE 14:29:04 10° WSW
Cosmos 1953 Rocket 4.4 14:25:33 43° SSW 14:25:33 43° SSW 14:29:01 10° S
Cosmos 1666 3.9 14:25:33 38° ESE 14:25:33 38° ESE 14:28:40 10° SSE
Meteor 2-12 Rocket 4.4 14:21:08 10° SSW 14:27:12 60° W 14:27:31 60° WNW
CZ-4C R/B 3.3 14:27:30 38° N 14:30:37 58° NE 14:37:30 10° SE
SL-08 ROCKET BODY 4.4 14:24:44 10° SSW 14:30:51 64° W 14:31:36 59° NW
ASTEX 1 4.2 14:34:34 38° SW 14:34:34 38° SW 14:38:15 10° SSW
CBERS-1 4.3 14:30:39 25° NNE 14:33:41 69° ESE 14:38:53 10° SSW
PAYLOAD A 4.0 14:34:00 53° N 14:35:23 83° WNW 14:40:57 10° SSW
Cosmos 2151 3.4 14:36:10 52° SSW 14:36:10 52° SSW 14:39:41 10° S
SL-16 R/B 4.0 14:30:27 10° SSE 14:36:06 32° E 14:41:41 10° NNE
Iridium 4 Rocket 3.1 14:42:52 65° NE 14:43:21 74° E 14:47:45 10° S
YAOGAN 6 3.3 14:44:31 48° S 14:44:31 48° S 14:47:12 10° S
CZ-2C R/B 3.8 14:45:30 34° WSW 14:45:30 34° WSW 14:48:48 10° SSW
ARIANE 5 R/B 3.8 14:42:34 10° NE 14:47:19 42° ESE 14:52:11 10° S
COBE Rocket 4.2 14:44:01 15° NNE 14:48:21 72° ESE 14:53:36 10° S
BREEZE-M (TANK) 4.3 14:40:57 29° WNW 14:48:30 75° N 14:53:01 10° E
USA 308 4.2 14:51:05 23° ESE 14:51:05 23° ESE 14:52:15 10° E
NOAA 11 4.1 14:46:33 21° NNE 14:50:22 89° ESE 14:55:55 10° SSW
SL-24 R/B - RUBIN 2 4.4 14:47:02 10° SW 14:51:35 51° SE 14:55:48 10° ENE
USA 306 3.9 14:53:32 28° SE 14:53:32 28° SE 14:55:08 10° ESE
Meteor 1-27 Rocket 3.8 14:47:15 10° S 14:52:56 75° ESE 14:58:30 10° NNE
Orbus 7S? 4.1 14:52:16 46° NNW 14:53:55 69° NE 14:57:39 10° ESE
Cosmos 773 Rocket 4.0 14:56:00 52° WNW 14:56:54 61° WSW 15:02:05 10° SSE
CZ-2C R/B 2.6 14:57:44 47° W 14:57:44 47° W 15:01:58 10° SSW
Cosmos 2227 Rocket 2.4 14:53:31 10° SW 14:58:57 46° WNW 14:59:04 46° WNW
NOSS 3-2 (C) 4.1 14:56:39 33° NNW 15:01:06 79° NE 15:08:41 10° SE
Cosmos 1151 Rocket 3.2 14:57:51 10° S 15:02:14 72° ESE 15:05:27 18° NNE
Cosmos 1500 3.6 15:03:15 48° SW 15:03:15 48° SW 15:06:22 10° S
Cosmos 2263 Rocket 2.3 14:59:01 10° SSW 15:04:49 78° ESE 15:10:34 10° NE
Nadezhda 2 Rocket 4.4 14:58:39 10° SSW 15:04:57 74° W 15:10:07 16° N
USA 307 3.3 15:08:25 38° SW 15:09:31 52° S 15:13:22 10° ESE
Cosmos 2084 4.4 15:05:47 10° SW 15:10:37 56° SE 15:15:20 10° ENE
Cosmos 1544 4.2 15:11:39 28° SW 15:11:39 28° SW 15:13:48 10° S
Cosmos 2369 4.3 15:09:23 21° N 15:13:07 55° ENE 15:18:43 10° SE
Cosmos 1437 Rocket 2.6 15:13:31 48° N 15:14:31 83° ENE 15:18:22 10° SSE
Cosmos 1656 4.5 15:12:50 31° W 15:14:40 39° SW 15:20:05 10° SSE
H-2A R/B 3.3 15:12:00 10° NNE 15:15:24 51° ESE 15:18:52 10° S
MOZ.5/SAFIR/RUBIN 5/SL-8 4.4 15:11:44 10° S 15:16:12 40° WSW 15:17:04 36° W
USA 305 3.4 15:15:08 33° SW 15:16:24 47° S 15:20:12 10° ESE
H-2A R/B 3.1 15:12:47 10° NE 15:17:40 46° ESE 15:22:30 10° S
ALOS 4.3 15:22:09 13° WSW 15:22:09 13° WSW 15:23:09 10° SW
Okean 1 3.2 15:17:07 10° S 15:21:11 90° E 15:24:26 15° N
Cosmos 2082 3.6 15:17:12 10° SSW 15:22:58 70° WNW 15:28:42 10° NNE
S3M 4.4 15:17:46 10° N 15:23:51 62° E 15:29:59 10° SSE
Cosmos 1607 4.0 15:19:56 10° SW 15:26:07 81° SE 15:32:13 10° NE
Uosat 12 SS-18 rocket 4.4 15:25:15 36° NW 15:27:20 81° SW 15:33:06 10° SE
SL-08 R/B 4.5 15:21:58 10° SSW 15:28:16 63° W 15:34:26 10° N
SL-19 R/B 4.4 15:22:48 10° NNE 15:29:01 86° WNW 15:35:01 10° SSW
USA 267 3.3 15:22:27 10° ESE 15:29:06 75° NE 15:33:16 25° NW
GP-B 3.9 15:27:07 10° S 15:31:34 54° E 15:35:58 10° NNE
Cosmos 1844 Rocket 4.3 15:27:21 10° SSW 15:32:39 36° SE 15:37:54 10° ENE
SL-24 R/B 4.5 15:28:54 10° SSE 15:33:16 89° ENE 15:36:03 21° NNW
Cosmos 1766 Rocket 4.2 15:30:32 10° N 15:34:59 60° E 15:39:29 10° SSE
Envisat 3.8 15:37:34 28° WNW 15:38:29 30° W 15:43:01 10° SSW
SL-23 DEB 4.3 15:36:46 29° W 15:38:53 84° S 15:45:25 10° E
USA 238 DEB 3.9 15:33:51 22° NW 15:39:18 88° NE 15:46:38 10° SE
USA 238 3.9 15:33:56 22° NW 15:39:23 88° NE 15:46:43 10° SE
ATLAS 5 CENTAUR R/B 4.5 15:36:33 10° SW 15:40:34 37° SSE 15:52:44 10° E
ISS -3.6 15:40:41 33° W 15:42:04 76° S 15:45:32 10° E
Cosmos 1484 Rocket 3.0 15:40:34 25° NNW 15:42:28 45° W 15:46:16 10° SSW
BREEZE-M DEB (TANK) 3.9 15:42:38 12° NNE 15:43:05 12° NNE 15:44:09 10° ENE
ERS-2 1.7 15:40:19 10° NNE 15:43:32 87° E 15:46:49 10° SSW
Cosmos 1697 Rocket 3.1 15:41:54 25° WNW 15:44:54 48° SW 15:50:26 10° SSE
Cosmos 724 4.5 15:40:13 10° SW 15:46:11 77° SE 15:52:14 10° NE
EXPRESS MD2 4.5 15:44:00 24° W 15:47:07 83° N 15:56:39 10° E
Cosmos 1980 Rocket 2.2 15:43:17 20° NW 15:47:18 81° WSW 15:53:00 10° SSE
CENTAUR R/B 3.4 15:45:24 18° W 15:50:33 42° SSW 15:56:31 10° SE
Cosmos 1939 Rocket 3.1 15:46:50 10° NNE 15:50:56 77° ESE 15:55:06 10° S
IRS-1C 4.2 15:45:39 10° N 15:50:57 59° WNW 15:56:19 10° SSW
Cosmos 1174 4.1 15:48:15 10° SW 15:52:39 66° SE 15:56:12 10° NE
Lacrosse 5 2.0 15:51:27 23° WNW 15:54:42 69° SSW 15:59:50 10° ESE
CZ-2C R/B 2.7 15:52:52 10° SSE 15:58:19 83° ENE 16:03:35 10° NNW
Meteor 1-28 Rocket 3.7 15:55:16 10° S 15:58:49 41° WSW 16:00:49 22° NW
Cosmos 1538 Rocket 4.1 15:56:23 19° NW 16:00:06 58° WSW 16:05:18 10° SSE
Cosmos 1666 4.2 15:59:44 18° W 16:00:16 19° WSW 16:02:59 10° SSW
Cosmos 1680 Rocket 4.2 15:55:09 10° N 16:00:17 55° ENE 16:05:26 10° SSE
Cosmos 1709 Rocket 4.0 15:54:19 10° SSW 16:00:41 81° W 16:07:02 10° N
Okean 3 Rocket 3.9 15:58:07 10° N 16:02:32 72° E 16:07:00 10° SSE
SL-16 R/B 3.5 15:57:20 10° N 16:02:37 40° ENE 16:07:56 10° SE
Cosmos 1553 Rocket 4.4 15:57:26 14° NW 16:02:43 47° WSW 16:08:59 10° S
Cosmos 2219 4.2 15:59:17 10° SW 16:03:50 24° WNW 16:08:20 10° NNW
SL-8 R/B 3.8 16:01:14 19° W 16:04:42 65° N 16:09:32 10° ENE
USA 234 3.5 15:59:20 10° NNE 16:05:42 50° NW 16:12:08 10° WSW
SAR-Lupe-2 4.1 16:09:31 10° NNE 16:13:07 64° ESE 16:16:46 10° S
SJ-12 3.9 16:09:37 10° NNE 16:13:40 87° ESE 16:17:47 10° SSW
Cosmos 1745 Rocket 4.3 16:08:38 10° SSW 16:14:33 46° W 16:20:26 10° NNW
Cosmos 2278 4.0 16:08:54 10° NNW 16:14:35 73° ENE 16:20:19 10° SSE
CZ-4C R/B 3.2 16:12:38 14° WNW 16:19:26 54° SW 16:25:53 10° SE
SL-16 R/B 2.7 16:13:47 10° S 16:20:00 57° WSW 16:26:08 10° NW
SJ-6F 4.4 16:16:46 10° NNE 16:20:57 85° WNW 16:25:13 10° SSW
Cosmos 2322 Rocket 3.7 16:16:50 10° N 16:22:06 39° ENE 16:27:24 10° SE
USA 308 1.6 16:22:29 13° WSW 16:24:44 58° NNW 16:27:03 10° NE
CZ-2D R/B 3.9 16:21:08 10° N 16:25:13 43° W 16:29:17 10° SSW
Cosmos 1624 Rocket 4.0 16:21:00 10° SSW 16:26:18 74° WNW 16:31:35 10° NNE
ARIANE 5 R/B 3.1 16:21:55 10° NNW 16:26:30 33° W 16:31:10 10° SSW
Cosmos 1743 3.6 16:24:56 10° N 16:28:34 52° E 16:32:17 10° SSE
USA 306 1.7 16:25:58 10° WSW 16:28:42 82° SSE 16:31:19 10° ENE
UNK 4.3 16:24:38 10° S 16:29:02 41° WSW 16:33:24 10° NW
Helios 1B rocket 2.3 16:25:35 10° NNE 16:29:36 85° WNW 16:33:41 10° SSW
Cosmos 2227 4.3 16:27:29 10° SW 16:33:02 54° WNW 16:38:31 10° N
SL-24 R/B - RUBIN 2 4.4 16:31:17 10° WSW 16:35:04 27° WNW 16:38:40 10° N
Cosmos 1626 3.9 16:32:14 10° S 16:35:34 36° ESE 16:38:51 10° NE
Sich 1 4.4 16:31:23 10° NNE 16:35:36 45° E 16:39:53 10° SSE
Cosmos 1408 Rocket 3.6 16:33:55 10° N 16:38:26 88° WSW 16:42:59 10° S
Cosmos 839 Rocket 4.1 16:33:29 10° NW 16:40:01 73° SW 16:46:13 10° SE
Cosmos 2074 Rocket 4.3 16:34:16 10° S 16:40:40 78° E 16:46:57 10° NNE
Cosmos 1515 Rocket 3.8 16:36:36 10° SSW 16:41:00 49° W 16:45:21 10° NNW
Cosmos 921 Rocket 3.5 16:38:37 10° NW 16:42:52 44° WSW 16:47:13 10° S
Cosmos 1844 3.8 16:38:58 10° SSW 16:44:38 86° ESE 16:50:17 10° NNE
USA 307 2.7 16:42:00 10° WSW 16:45:57 84° SSE 16:49:50 10° ENE
TSX-5 4.4 16:41:43 10° NW 16:45:57 60° SW 16:51:24 10° SSE
Cosmos 2360 Rocket 3.5 16:41:16 10° N 16:46:34 43° ENE 16:51:55 10° SE
Cosmos 2263 Rocket 3.4 16:43:55 10° SW 16:48:07 21° W 16:52:16 10° NNW
H-2A R/B 4.3 16:46:47 10° WNW 16:48:45 14° W 16:50:43 10° SW
Cosmos 2084 4.4 16:45:24 10° WSW 16:49:44 32° WNW 16:53:54 10° N
PSLV R/B 3.8 16:47:02 10° N 16:51:11 49° W 16:55:26 10° SSW
